(°C)
(°C)
-1°
-1°
-1°
O
ONO
O
O
OSO
O
ONO
(km/h)
6-14
7-13
6-10
2-17
6-18
6-24
9-27
(mm)
1
0
0.7
1.5
0
0
2
(%)
42
51
75
70
55
56
75

Elevación del sol

/ -16.5°
sun-icon
UV 0
07:41
16:27
(3°)
07:53
16:25

METAR a Innsbruck (LOWI)

Hora Condiciones Temperatura/
Punto de condensación
Viento Visibilidad Tiempo Nubes Presión Cambiar Bruto
VFR 2°C / 1°C 290º 10kt >10km Light Rain 1.00mm precipitation Vertical Visibility of 0ft.
Broken Clouds 3500ft
1002 Temporary: Rain . LOWI 041650Z 29010KT 9999 -RA FEW025 BKN035 02/01 Q1002 TEMPO RA
VFR 2°C / 1°C 290º 8kt >10km Light Rain 1.00mm precipitation Vertical Visibility of 0ft.
Broken Clouds 3500ft
1002 Temporary: Rain . LOWI 041620Z 29008KT 9999 -RA FEW025 BKN035 02/01 Q1002 TEMPO RA
VFR 2°C / 1°C 270º 15kt >10km Light Rain 1.00mm precipitation Vertical Visibility of 0ft.
Broken Clouds 7000ft
1002 Temporary: Rain . LOWI 041550Z 27015KT 9999 -RA FEW007 BKN070 02/01 Q1002 TEMPO RA
VFR 2°C / 0°C 270º 13kt >10km - Few Clouds 700ft
Scattered Clouds 7000ft
Broken Clouds 9000ft
1001 No Significant change LOWI 041520Z 27013KT 9999 FEW007 SCT070 BKN090 02/00 Q1001 NOSIG
VFR 2°C / 0°C 260º 10kt >10km - Few Clouds 700ft
Broken Clouds 9000ft
1001 No Significant change LOWI 041450Z 26010KT 9999 FEW007 BKN090 02/00 Q1001 NOSIG
VFR 2°C / 0°C 270º 15kt >10km - Few Clouds 700ft
Broken Clouds 7000ft
1001 No Significant change LOWI 041420Z 27015KT 9999 FEW007 BKN070 02/00 Q1001 NOSIG
VFR 2°C / 0°C 290º 10kt >10km - Few Clouds 800ft
Broken Clouds 7000ft
1002 No Significant change LOWI 041350Z 29010KT 9999 FEW008 BKN070 02/00 Q1002 NOSIG
VFR 2°C / 0°C 270º 12kt >10km - Few Clouds 800ft
Broken Clouds 7000ft
1002 No Significant change LOWI 041320Z 27012KT 9999 FEW008 BKN070 02/00 Q1002 NOSIG
VFR 2°C / 0°C 260º variable 220º to 280º 12kt >10km - Few Clouds 800ft
Broken Clouds 5500ft
1002 No Significant change LOWI 041250Z 26012KT 220V280 9999 FEW008 BKN055 02/00 Q1002 NOSIG
VFR 2°C / 1°C 270º 11kt >10km - Few Clouds 800ft
Broken Clouds 5500ft
1002 No Significant change LOWI 041220Z 27011KT 9999 FEW008 BKN055 02/01 Q1002 NOSIG
VFR 1°C / 1°C 270º 13kt >10km - Few Clouds 800ft
Broken Clouds 5500ft
1003 No Significant change LOWI 041150Z 27013KT 9999 FEW008 BKN055 01/01 Q1003 NOSIG
VFR 1°C / 1°C 270º 12kt >10km - Few Clouds 800ft
Scattered Clouds 2000ft
Overcast 5000ft
1004 No Significant change LOWI 041120Z 27012KT 9999 FEW008 SCT020 OVC050 01/01 Q1004 NOSIG
VFR 1°C / 0°C 270º 12kt >10km Light Snow 1.00mm precipitation Vertical Visibility of 0ft.
Scattered Clouds 2000ft
Overcast 4500ft
1004 No Significant change LOWI 041050Z 27012KT 9999 -SN FEW008 SCT020 OVC045 01/M00 Q1004 NOSIG
VFR 0°C / 0°C 270º 14kt >10km Snow 3.00mm precipitation Vertical Visibility of 0ft.
Scattered Clouds 2000ft
Overcast 4500ft
1005 No Significant change LOWI 041020Z 27014KT 9999 4000W SN FEW008 SCT020 OVC045 00/M00 Q1005 NOSIG
VFR 0°C / -1°C 260º 14kt >10km Light Snow 1.00mm precipitation Vertical Visibility of 0ft.
Scattered Clouds 3000ft
Overcast 4500ft
1005 No Significant change LOWI 040950Z 26014KT 9999 -SN FEW008 SCT030 OVC045 00/M01 Q1005 NOSIG
IFR 0°C / -1°C 270º 13kt 4000m Light Snow 1.00mm precipitation Vertical Visibility of 0ft.
Broken Clouds 3000ft
Overcast 5300ft
1005 Becoming: from 0930 Visibility 9999. LOWI 040920Z 27013KT 4000 -SN FEW008 BKN030 OVC053 M00/M01 Q1005 RESN BECMG FM0930 9999
IFR 0°C / -1°C 260º 12kt 2500m Light Snow Mist 1.00mm precipitation Vertical Visibility of 0ft.
Broken Clouds 2000ft
Broken Clouds 3500ft
1006 Becoming: from 0930 Visibility 9999. LOWI 040850Z 26012KT 2500 -SN BR FEW010 BKN020 BKN035 M00/M01 Q1006 RESN BECMG FM0930 9999
IFR 0°C / -1°C 270º 13kt 2500m. Runway 08: Visual range is 1500m and decreasing. Runway 26: Visual range is 1500m and decreasing. Snow 3.00mm precipitation Vertical Visibility of 0ft.
Broken Clouds 2000ft
Broken Clouds 3500ft
1006 No Significant change LOWI 040820Z 27013KT 2500 R08/P1500D R26/P1500D SN FEW010 BKN020 BKN035 M00/M01 Q1006 NOSIG
VFR 0°C / -2°C 270º 13kt >10km Light Snow 1.00mm precipitation Vertical Visibility of 0ft.
Scattered Clouds 2000ft
Broken Clouds 5000ft
1006 Temporary: Visibility 4000. VV015 LOWI 040750Z 27013KT 9999 -SN FEW010 SCT020 BKN050 M00/M02 Q1006 TEMPO 4000 VV015
VFR 0°C / -2°C 260º 14kt >10km - Few Clouds 1000ft
Scattered Clouds 4000ft
Broken Clouds 6500ft
1006 Temporary: Visibility 4000. Light Showers Snow . LOWI 040720Z 26014KT 9999 FEW010 SCT040 BKN065 M00/M02 Q1006 TEMPO 4000 -SHSN
VFR 0°C / -3°C 260º 12kt >10km - Broken Clouds 7000ft 1006 No Significant change LOWI 040650Z 26012KT 9999 BKN070 M00/M03 Q1006 NOSIG
VFR 0°C / -3°C 260º 14kt >10km - Broken Clouds 7000ft 1006 No Significant change LOWI 040620Z 26014KT 9999 BKN070 M00/M03 Q1006 NOSIG
VFR 0°C / -5°C 270º 13kt >10km - Broken Clouds 7000ft 1006 No Significant change LOWI 040550Z 27013KT 9999 BKN070 M00/M05 Q1006 NOSIG
VFR 0°C / -5°C 270º 13kt >10km - Broken Clouds 7000ft 1006 No Significant change LOWI 040520Z 27013KT 9999 BKN070 M00/M05 Q1006 NOSIG

VFR

2°C / 1°C

[Más]
Viento 290º 10kt
Visibilidad >10km
Tiempo Light Rain 1.00mm precipitation
Nubes Vertical Visibility of 0ft.
Broken Clouds 3500ft
Presión 1002
Cambiar Temporary: Rain .
Bruto LOWI 041650Z 29010KT 9999 -RA FEW025 BKN035 02/01 Q1002 TEMPO RA

VFR

2°C / 1°C

[Más]
Viento 290º 8kt
Visibilidad >10km
Tiempo Light Rain 1.00mm precipitation
Nubes Vertical Visibility of 0ft.
Broken Clouds 3500ft
Presión 1002
Cambiar Temporary: Rain .
Bruto LOWI 041620Z 29008KT 9999 -RA FEW025 BKN035 02/01 Q1002 TEMPO RA

VFR

2°C / 1°C

[Más]
Viento 270º 15kt
Visibilidad >10km
Tiempo Light Rain 1.00mm precipitation
Nubes Vertical Visibility of 0ft.
Broken Clouds 7000ft
Presión 1002
Cambiar Temporary: Rain .
Bruto LOWI 041550Z 27015KT 9999 -RA FEW007 BKN070 02/01 Q1002 TEMPO RA

VFR

2°C / 0°C

[Más]
Viento 270º 13kt
Visibilidad >10km
Tiempo -
Nubes Few Clouds 700ft
Scattered Clouds 7000ft
Broken Clouds 9000ft
Presión 1001
Cambiar No Significant change
Bruto LOWI 041520Z 27013KT 9999 FEW007 SCT070 BKN090 02/00 Q1001 NOSIG

VFR

2°C / 0°C

[Más]
Viento 260º 10kt
Visibilidad >10km
Tiempo -
Nubes Few Clouds 700ft
Broken Clouds 9000ft
Presión 1001
Cambiar No Significant change
Bruto LOWI 041450Z 26010KT 9999 FEW007 BKN090 02/00 Q1001 NOSIG

VFR

2°C / 0°C

[Más]
Viento 270º 15kt
Visibilidad >10km
Tiempo -
Nubes Few Clouds 700ft
Broken Clouds 7000ft
Presión 1001
Cambiar No Significant change
Bruto LOWI 041420Z 27015KT 9999 FEW007 BKN070 02/00 Q1001 NOSIG

VFR

2°C / 0°C

[Más]
Viento 290º 10kt
Visibilidad >10km
Tiempo -
Nubes Few Clouds 800ft
Broken Clouds 7000ft
Presión 1002
Cambiar No Significant change
Bruto LOWI 041350Z 29010KT 9999 FEW008 BKN070 02/00 Q1002 NOSIG

VFR

2°C / 0°C

[Más]
Viento 270º 12kt
Visibilidad >10km
Tiempo -
Nubes Few Clouds 800ft
Broken Clouds 7000ft
Presión 1002
Cambiar No Significant change
Bruto LOWI 041320Z 27012KT 9999 FEW008 BKN070 02/00 Q1002 NOSIG

VFR

2°C / 0°C

[Más]
Viento 260º variable 220º to 280º 12kt
Visibilidad >10km
Tiempo -
Nubes Few Clouds 800ft
Broken Clouds 5500ft
Presión 1002
Cambiar No Significant change
Bruto LOWI 041250Z 26012KT 220V280 9999 FEW008 BKN055 02/00 Q1002 NOSIG

VFR

2°C / 1°C

[Más]
Viento 270º 11kt
Visibilidad >10km
Tiempo -
Nubes Few Clouds 800ft
Broken Clouds 5500ft
Presión 1002
Cambiar No Significant change
Bruto LOWI 041220Z 27011KT 9999 FEW008 BKN055 02/01 Q1002 NOSIG

VFR

1°C / 1°C

[Más]
Viento 270º 13kt
Visibilidad >10km
Tiempo -
Nubes Few Clouds 800ft
Broken Clouds 5500ft
Presión 1003
Cambiar No Significant change
Bruto LOWI 041150Z 27013KT 9999 FEW008 BKN055 01/01 Q1003 NOSIG

VFR

1°C / 1°C

[Más]
Viento 270º 12kt
Visibilidad >10km
Tiempo -
Nubes Few Clouds 800ft
Scattered Clouds 2000ft
Overcast 5000ft
Presión 1004
Cambiar No Significant change
Bruto LOWI 041120Z 27012KT 9999 FEW008 SCT020 OVC050 01/01 Q1004 NOSIG

VFR

1°C / 0°C

[Más]
Viento 270º 12kt
Visibilidad >10km
Tiempo Light Snow 1.00mm precipitation
Nubes Vertical Visibility of 0ft.
Scattered Clouds 2000ft
Overcast 4500ft
Presión 1004
Cambiar No Significant change
Bruto LOWI 041050Z 27012KT 9999 -SN FEW008 SCT020 OVC045 01/M00 Q1004 NOSIG

VFR

0°C / 0°C

[Más]
Viento 270º 14kt
Visibilidad >10km
Tiempo Snow 3.00mm precipitation
Nubes Vertical Visibility of 0ft.
Scattered Clouds 2000ft
Overcast 4500ft
Presión 1005
Cambiar No Significant change
Bruto LOWI 041020Z 27014KT 9999 4000W SN FEW008 SCT020 OVC045 00/M00 Q1005 NOSIG

VFR

0°C / -1°C

[Más]
Viento 260º 14kt
Visibilidad >10km
Tiempo Light Snow 1.00mm precipitation
Nubes Vertical Visibility of 0ft.
Scattered Clouds 3000ft
Overcast 4500ft
Presión 1005
Cambiar No Significant change
Bruto LOWI 040950Z 26014KT 9999 -SN FEW008 SCT030 OVC045 00/M01 Q1005 NOSIG

IFR

0°C / -1°C

[Más]
Viento 270º 13kt
Visibilidad 4000m
Tiempo Light Snow 1.00mm precipitation
Nubes Vertical Visibility of 0ft.
Broken Clouds 3000ft
Overcast 5300ft
Presión 1005
Cambiar Becoming: from 0930 Visibility 9999.
Bruto LOWI 040920Z 27013KT 4000 -SN FEW008 BKN030 OVC053 M00/M01 Q1005 RESN BECMG FM0930 9999

IFR

0°C / -1°C

[Más]
Viento 260º 12kt
Visibilidad 2500m
Tiempo Light Snow Mist 1.00mm precipitation
Nubes Vertical Visibility of 0ft.
Broken Clouds 2000ft
Broken Clouds 3500ft
Presión 1006
Cambiar Becoming: from 0930 Visibility 9999.
Bruto LOWI 040850Z 26012KT 2500 -SN BR FEW010 BKN020 BKN035 M00/M01 Q1006 RESN BECMG FM0930 9999

IFR

0°C / -1°C

[Más]
Viento 270º 13kt
Visibilidad 2500m. Runway 08: Visual range is 1500m and decreasing. Runway 26: Visual range is 1500m and decreasing.
Tiempo Snow 3.00mm precipitation
Nubes Vertical Visibility of 0ft.
Broken Clouds 2000ft
Broken Clouds 3500ft
Presión 1006
Cambiar No Significant change
Bruto LOWI 040820Z 27013KT 2500 R08/P1500D R26/P1500D SN FEW010 BKN020 BKN035 M00/M01 Q1006 NOSIG

VFR

0°C / -2°C

[Más]
Viento 270º 13kt
Visibilidad >10km
Tiempo Light Snow 1.00mm precipitation
Nubes Vertical Visibility of 0ft.
Scattered Clouds 2000ft
Broken Clouds 5000ft
Presión 1006
Cambiar Temporary: Visibility 4000. VV015
Bruto LOWI 040750Z 27013KT 9999 -SN FEW010 SCT020 BKN050 M00/M02 Q1006 TEMPO 4000 VV015

VFR

0°C / -2°C

[Más]
Viento 260º 14kt
Visibilidad >10km
Tiempo -
Nubes Few Clouds 1000ft
Scattered Clouds 4000ft
Broken Clouds 6500ft
Presión 1006
Cambiar Temporary: Visibility 4000. Light Showers Snow .
Bruto LOWI 040720Z 26014KT 9999 FEW010 SCT040 BKN065 M00/M02 Q1006 TEMPO 4000 -SHSN

VFR

0°C / -3°C

[Más]
Viento 260º 12kt
Visibilidad >10km
Tiempo -
Nubes Broken Clouds 7000ft
Presión 1006
Cambiar No Significant change
Bruto LOWI 040650Z 26012KT 9999 BKN070 M00/M03 Q1006 NOSIG

VFR

0°C / -3°C

[Más]
Viento 260º 14kt
Visibilidad >10km
Tiempo -
Nubes Broken Clouds 7000ft
Presión 1006
Cambiar No Significant change
Bruto LOWI 040620Z 26014KT 9999 BKN070 M00/M03 Q1006 NOSIG

VFR

0°C / -5°C

[Más]
Viento 270º 13kt
Visibilidad >10km
Tiempo -
Nubes Broken Clouds 7000ft
Presión 1006
Cambiar No Significant change
Bruto LOWI 040550Z 27013KT 9999 BKN070 M00/M05 Q1006 NOSIG

VFR

0°C / -5°C

[Más]
Viento 270º 13kt
Visibilidad >10km
Tiempo -
Nubes Broken Clouds 7000ft
Presión 1006
Cambiar No Significant change
Bruto LOWI 040520Z 27013KT 9999 BKN070 M00/M05 Q1006 NOSIG

TAF a Innsbruck (LOWI)

From till


Maximum Temperature 3ºC on . Minimum Temperature 1ºC on .
From till Wind 270º 10kt. Visibility 10km or more. Few Clouds 1000ft. Broken Clouds 4000ft.
Temporarly from till Rain .
Temporarly from till Rain Snow . Broken Clouds 1200ft.
With 30% probability, Temporarly from till Visibility 1200m. Snow . Obscured Sky.

Bruto: TAF LOWI 041115Z 0412/0512 27010KT 9999 FEW010 BKN040 TX03/0415Z TN01/0503Z TEMPO 0412/0424 RA TEMPO 0424/0506 RASN BKN012 PROB30 TEMPO 0502/0507 1200 SN VV005

Radar para Innsbruck

llovizna
Leve
Moderado
Fuerte
Muy fuerte
Granizo

El marcador de lugar se coloca en Innsbruck. Esta animación muestra lo radar de precipitaciones hasta la última hora, así como la 2h previsión. Las lloviznas o las nevadas ligeras pueden ser invisibles para el radar. La intensidad de la precipitación está codificada por colores, que van del azul claro al naranja.
Copyright 2021 Deutscher Wetterdienst / meteoblue.

Imágenes actuales de satélite y lluvia para Innsbruck, Austria

El marcador de lugar se coloca en Innsbruck. [Más]

La imagen de satélite en tiempo real se aprovecha de la combinación de bandas de la luz visible y de la luz infrarrojo. Como se puede detectar cambios de temperaturas atreves de la banda infrarrojo, la imagen no está escura de noche. No obstante, la niebla y las nubes bajas son apenas visibles en las imágenes infrarrojo como las diferencias de temperaturas entre el suelo y la niebla son muy pequeñas. Por eso son casi invisibles durante la noche. Las imágenes de satélite del Meteosat (Europa) son actualizados en tiempo real cada 5 minutos. Las imágenes del GOES-16/GOES-17 (América del Norte y América del Sur) y Himawari (Asia) son actualizados cada 10 minutos.

La precipitación se estima a partir de radares y satélites. Estimaciones de precipitación de la noche de los satélites son menos precisas que durante el día. Cruces naranjas identifican lugares donde relámpagos fueron detectados (en Europa).

Copyright 2021 EUMETSAT / meteoblue. Datos de relámpagos proporcionados por nowcast.